Location: Northern Prairie Star Party
(53.2167°N, 112.5333°W)
Time: 18:14:07
(UTC-06:00)

Daily predictions for brighter satellites

Satellite Brightness Start Highest point End
(mag) Time Altitude Azimuth Time Altitude Azimuth Time Altitude Azimuth
Cosmos 2123 Rocket 4.3 20:11:11 10° N 20:17:22 51° ENE 20:23:29 10° SSE
Cosmos 1726 Rocket 3.9 20:15:07 10° SSW 20:19:27 71° WNW 20:23:51 10° N
Spot 2 Rocket 3.6 20:15:16 10° SSE 20:20:19 67° ENE 20:25:26 10° NNW
Cosmos 2228 2.9 20:16:43 10° S 20:20:57 77° E 20:25:14 10° NNE
FENGYUN 3A 3.8 20:17:09 10° SSE 20:22:34 89° WSW 20:28:01 10° NNW
Cosmos 2263 Rocket 2.7 20:18:50 10° SW 20:24:28 65° NW 20:30:05 10° NNE
USA 215 4.4 20:23:20 10° E 20:27:57 20° SE 20:32:33 10° S
Cosmos 1766 4.1 20:25:40 10° SSE 20:29:01 28° E 20:32:22 10° NNE
Cosmos 2082 Rocket 2.9 20:24:19 10° NNW 20:29:41 39° NE 20:35:00 10° ESE
Cosmos 2084 Rocket 3.7 20:25:57 10° SSW 20:29:43 39° SE 20:33:21 10° ENE
ASTRO F (AKARI) 4.3 20:27:42 10° NNE 20:30:52 82° WNW 20:34:00 10° SSW
Cosmos 1898 Rocket 3.7 20:28:25 10° S 20:33:30 49° ESE 20:38:35 10° NE
COSMOS 2406 4.1 20:28:25 10° NW 20:34:01 53° WSW 20:39:34 10° S
NOSS 2-1 (E) 4.2 20:30:15 10° WSW 20:34:18 61° NW 20:39:23 10° NE
SAR-Lupe-1 4.5 20:32:13 10° SE 20:35:37 43° ENE 20:39:03 10° N
Envisat 3.5 20:33:30 10° SE 20:38:14 40° ENE 20:42:58 10° N
Helios 1B rocket 3.4 20:39:54 10° NE 20:43:28 27° E 20:46:59 10° SSE
Cosmos 1544 4.4 20:40:48 10° SE 20:43:35 21° E 20:46:22 10° NE
Meteor 1-4 Rocket 4.2 20:42:30 12° ESE 20:43:50 14° E 20:45:49 10° NE
Geosat 4.4 20:42:30 10° NE 20:47:15 40° ESE 20:51:57 10° S
Helios 1A 3.0 20:43:25 10° SSE 20:47:32 63° ENE 20:51:42 10° N
Resurs 1-3 3.7 20:44:27 10° SSE 20:48:50 81° WSW 20:53:16 10° NNW
Cosmos 2098 4.4 20:48:05 10° SSW 20:51:16 72° W 20:54:15 10° N
Cosmos 1818 3.6 20:46:07 10° NW 20:51:36 73° NE 20:56:37 12° SE
SL-27 R/B 2.7 20:49:21 10° NNW 20:52:53 72° WSW 20:56:27 10° SSE
COSMOS 2487 3.5 20:49:58 10° N 20:53:10 30° NE 20:55:21 16° ESE
Meteor 1-29 4.0 20:51:47 10° NE 20:54:42 25° E 20:57:37 10° SSE
Cosmos 2058 Rocket 4.5 20:51:06 10° SW 20:55:25 45° WNW 20:59:47 10° N
Cosmos 1844 3.9 20:51:22 10° S 20:56:57 52° ESE 21:02:35 10° NE
Cosmos 858 Rocket 4.5 20:53:53 10° SSW 20:59:07 67° ESE 21:04:24 10° NNE
Cosmos 1900 4.3 20:55:06 10° SW 21:00:00 85° SE 21:04:59 10° NE
CZ-2D R/B 3.6 20:56:17 10° S 21:00:08 70° WSW 21:04:03 10° NNW
Lacrosse 4 Rocket 1.5 20:56:16 10° SSW 21:00:11 48° ESE 21:04:07 10° NE
USA 267 3.3 20:59:17 14° ESE 21:05:00 84° NNE 21:11:36 10° WNW
USA 186 1.2 21:03:19 10° S 21:05:37 66° WSW 21:07:52 10° NNW
Cosmos 1340 Rocket 3.9 21:02:37 10° N 21:06:10 28° ENE 21:07:58 20° ESE
Cosmos 1674 3.3 21:03:29 10° N 21:07:01 37° ENE 21:09:12 19° SE
Cosmos 1805 3.7 21:03:34 10° SSE 21:07:11 37° E 21:10:49 10° NNE
ERS-1 Rocket 3.5 21:03:35 14° SE 21:07:32 42° ENE 21:12:17 10° N
Cosmos 1937 Rocket 3.5 21:02:41 10° SSW 21:07:53 66° ESE 21:13:10 10° NNE
Abrixas 3.9 21:05:31 10° WSW 21:07:57 25° SSW 21:09:11 19° SSE
Cosmos 1437 Rocket 2.9 21:04:23 10° SSW 21:08:24 80° WNW 21:12:31 10° NNE
CZ-4B DEB 2.6 21:05:48 11° SSE 21:08:48 74° ENE 21:11:56 10° N
Okean 3 Rocket 3.5 21:04:32 10° N 21:08:58 85° ENE 21:13:22 10° SSE
Cosmos 1269 Rocket 4.1 21:04:28 10° NNW 21:09:45 62° ENE 21:14:00 16° SE
Cosmos 1408 Rocket 3.9 21:05:39 10° N 21:09:58 46° ENE 21:13:19 16° SE
ARGOS 4.2 21:07:07 17° ESE 21:10:04 27° ENE 21:14:31 10° N
Cosmos 2298 Rocket 4.0 21:05:40 10° SSW 21:10:58 82° ESE 21:16:21 10° NNE
Meteor 1-22 Rocket 4.3 21:08:48 10° S 21:14:38 83° ESE 21:20:44 10° NNE
Cosmos 405 4.3 21:11:16 10° SW 21:14:40 44° WNW 21:18:05 10° N
Cosmos 1470 4.0 21:19:09 23° E 21:19:15 23° E 21:22:24 10° NE
ALOS 4.3 21:15:32 10° SSW 21:19:36 29° W 21:23:42 10° NNW
Cosmos 1934 Rocket 4.0 21:15:13 10° S 21:21:22 84° W 21:27:29 10° N
Cosmos 1758 3.5 21:20:37 10° S 21:24:26 48° E 21:28:19 10° NNE
CZ-3B DEB 2.7 21:17:01 10° SW 21:25:52 46° SSE 21:28:41 22° E
Lacrosse 5 2.7 21:21:36 10° S 21:25:53 28° SE 21:27:17 24° ESE
Cosmos 1939 Rocket 2.9 21:26:40 14° SSE 21:30:10 86° ENE 21:34:22 10° NNW
SPOT 5 3.7 21:28:33 24° ESE 21:31:12 40° ENE 21:36:10 10° N
NOSS 2 (F) 4.5 21:30:01 10° NW 21:32:48 74° SW 21:33:37 43° SSE
Resurs 01 Rocket 3.7 21:31:40 10° SSW 21:35:27 28° W 21:39:17 10° NW
Cosmos 1953 2.3 21:31:30 10° S 21:35:30 59° E 21:39:32 10° NNE
Cosmos 482 Debris 4.4 21:33:56 10° W 21:34:59 24° WSW 21:34:59 24° WSW
Cosmos 2344 3.7 21:28:24 10° SSW 21:36:01 67° SE 21:45:06 10° NE
GP-B 3.0 21:31:35 10° S 21:36:01 80° E 21:40:29 10° N
Cosmos 1844 Rocket 3.1 21:37:42 10° SW 21:43:19 67° NW 21:48:58 10° NNE
SL-14 R/B 4.0 21:40:57 10° N 21:44:28 32° ENE 21:44:35 32° ENE
YAOGAN 6 2.5 21:43:57 37° SSE 21:45:16 73° ENE 21:49:01 10° N
Cosmos 2016 Rocket 4.5 21:42:53 26° SE 21:45:25 37° E 21:51:00 10° NNE
Cosmos 1833 Rocket 2.7 21:41:10 10° NNW 21:46:50 85° WSW 21:50:13 25° SSE
Cosmos 1356 Rocket 4.0 21:43:50 10° N 21:47:46 37° ENE 21:48:14 36° E
Cosmos 1733 3.7 21:49:22 39° E 21:49:22 39° E 21:52:44 10° NNE
Cosmos 2278 Rocket 2.1 21:44:30 10° SSW 21:50:10 73° ESE 21:55:51 10° NE
NOAA 11 4.3 21:48:10 29° SE 21:50:52 61° ENE 21:56:19 10° N
Cosmos 1766 Rocket 3.7 21:46:43 10° NNW 21:51:13 77° W 21:54:17 20° S
Tsikada Rocket 4.4 21:46:29 10° N 21:52:20 42° ENE 21:54:32 32° ESE
Cosmos 1626 4.1 21:51:33 10° NNE 21:53:17 16° NE 21:53:17 16° NE
Lacrosse 5 rocket 1.1 21:50:23 10° WNW 21:54:24 83° SSW 21:55:11 55° SE
Cosmos 2100 Rocket 4.0 21:49:28 10° S 21:55:40 61° E 22:01:58 10° NNE
Cosmos 1076 Rocket 4.3 21:53:04 10° NNW 21:57:11 49° W 22:00:54 12° SSW
Cosmos 1605 Rocket 4.3 21:51:14 10° SSW 21:57:28 68° WNW 22:03:51 10° N
Cosmos 372 Rocket 4.2 21:57:10 37° SE 21:58:14 42° ESE 22:03:05 10° NE
H-2A R/B 2.8 21:57:47 33° E 21:59:08 39° ENE 22:04:02 10° N
Cosmos 2151 3.5 21:55:11 10° N 21:59:14 39° ENE 21:59:22 39° ENE
Cosmos 2297 3.9 21:55:59 10° S 22:01:26 47° ESE 22:06:55 10° NE
ATLAS CENTAUR R/B 3.2 22:00:52 10° NW 22:01:31 17° NW 22:01:31 17° NW
USA 245 4.4 22:04:29 39° SE 22:06:18 58° ENE 22:12:11 10° N
Cosmos 158 Rocket 4.3 22:03:22 10° NNW 22:08:21 61° WSW 22:11:01 27° S
Terra 2.9 22:08:46 28° ENE 22:08:59 28° ENE 22:13:01 10° N
Cosmos 2084 Rocket 4.4 22:05:26 10° WSW 22:09:12 42° NNW 22:12:22 13° NE
MetOp-B 4.0 22:09:15 35° SSE 22:11:35 86° ENE 22:16:59 10° NNW
Cosmos 1802 Rocket 3.9 22:08:23 26° SSE 22:11:53 63° E 22:18:00 10° NNE
USA 215 3.2 22:05:32 10° ENE 22:11:59 57° SE 22:18:23 10° SW
Cosmos 494 Rocket 3.9 22:08:21 10° NNW 22:13:30 66° ENE 22:14:38 51° ESE
Cosmos 2082 Rocket 2.8 22:08:28 10° NW 22:14:00 53° WSW 22:17:10 25° S
Cosmos 2058 3.5 22:11:26 10° N 22:15:06 43° NE 22:15:06 43° NE
Timation 2 Rocket 4.3 22:10:02 10° NW 22:16:23 62° WSW 22:19:38 29° S
Cosmos 1271 Rocket 2.7 22:16:40 69° ENE 22:16:40 69° ENE 22:20:30 10° NNE
Timation 1 Rocket 4.2 22:10:46 10° SSW 22:16:42 67° ESE 22:22:42 10° NE
Envisat 4.3 22:12:36 10° SSW 22:17:18 37° W 22:22:02 10° NNW
Cosmos 2061 Rocket 3.9 22:13:20 18° S 22:18:14 75° E 22:24:41 10° NNE
Meteor 1-4 Rocket 3.2 22:16:42 23° SW 22:18:36 51° WNW 22:22:02 10° N
Helios 1B rocket 3.8 22:15:01 10° N 22:18:54 40° WNW 22:22:46 10° SW
Meteor 1-16 Rocket 4.5 22:20:30 46° ESE 22:21:18 49° E 22:27:01 10° NNE
Cosmos 1743 Rocket 3.6 22:18:58 10° NNW 22:23:23 74° W 22:24:24 51° SSW
Cosmos 1125 Rocket 3.3 22:18:38 10° SSW 22:23:50 83° ESE 22:29:06 10° NNE
Cosmos-2242 3.0 22:23:52 44° SSW 22:25:08 79° WNW 22:29:26 10° N
Cosmos 1500 Rocket 3.4 22:22:16 10° N 22:26:39 89° WSW 22:27:00 76° S
COSMOS 2487 4.1 22:25:29 10° NW 22:28:38 29° WSW 22:29:19 26° SW
H-2A R/B 2.5 22:30:47 45° NE 22:30:47 45° NE 22:34:09 10° N
Cosmos 1816 Rocket 4.4 22:29:51 10° N 22:36:01 68° ENE 22:37:18 54° SE
Cosmos 1184 Rocket 3.9 22:32:50 10° NNW 22:35:33 46° NW 22:35:33 46° NW
Lacrosse 4 Rocket 3.2 22:35:26 10° WSW 22:39:04 31° NW 22:42:44 10° NNE
Cosmos 2221 4.5 22:44:48 19° NE 22:44:48 19° NE 22:46:20 10° NNE
SPOT 1/Viking Rocket 3.5 22:41:35 65° S 22:42:25 87° WSW 22:47:40 10° NNW
Cosmos 1340 Rocket 4.1 22:39:00 10° NNW 22:42:44 35° W 22:43:38 31° WSW
Cosmos 2251 Rocket 3.5 22:39:40 10° NNW 22:44:59 76° WSW 22:45:45 64° S
ERS-1 Rocket 4.3 22:43:34 20° SSW 22:46:25 35° W 22:51:03 10° NNW
USA 267 3.7 22:46:37 40° S 22:48:22 48° SW 22:54:42 10° WNW
ARGOS 3.4 22:48:38 48° SSW 22:49:58 65° WSW 22:55:19 10° NNW
Cosmos 1470 4.0 22:54:29 38° W 22:55:09 41° WNW 22:58:57 10° N
Cosmos 1459 Rocket 4.5 22:52:48 12° SSW 22:58:38 59° WNW 23:04:45 10° N
Cosmos 2173 Rocket 4.4 22:54:17 14° SSW 22:59:35 59° WNW 23:05:49 10° N
Cosmos 2233 Rocket 4.1 23:02:29 56° ENE 23:02:29 56° ENE 23:08:07 10° NNE
Cosmos 1842 Rocket 4.1 23:02:53 58° NNW 23:02:53 58° NNW 23:06:34 10° N
Cosmos 1864 Rocket 4.4 23:01:37 62° S 23:02:49 84° E 23:09:10 10° NNE
Nimbus 7 Rocket 4.2 22:58:14 10° NNE 23:04:09 83° ESE 23:04:42 73° S
Lacrosse 5 2.7 23:03:19 10° WSW 23:06:35 41° WSW 23:06:35 41° WSW
SPOT 5 4.1 23:07:47 35° SW 23:09:14 42° W 23:14:20 10° NNW
Cosmos 2369 Rocket 4.3 23:19:35 15° NE 23:19:35 15° NE 23:20:33 10° NE
Cosmos 2227 Rocket 4.2 23:17:59 10° NNW 23:22:02 19° NNE 23:23:53 17° NE
Cosmos 1626 4.3 23:26:10 10° NNW 23:27:58 26° NNW 23:27:58 26° NNW
Lacrosse 5 rocket 4.0 23:30:14 10° W 23:30:53 13° W 23:30:53 13° W
Cosmos 2278 Rocket 3.9 23:29:46 10° WSW 23:34:47 31° NW 23:39:50 10° NNE
Cosmos 1725 Rocket 4.3 23:34:23 49° SW 23:35:46 61° WNW 23:41:57 10° N
H-2A R/B 2.9 23:38:24 43° WSW 23:38:32 43° W 23:43:37 10° NNW
CZ-3B DEB 3.2 23:32:33 10° W 23:36:35 33° W 23:36:35 33° W
Terra 2.9 23:47:39 42° WNW 23:47:39 42° WNW 23:51:11 10° NNW
